Location: Asheville, NC
(35.6000°N, 82.5500°W)
Time: 08:43:07
(UTC-04:00)

Tiangong 1 - Pass Details

Date: 07 October 2017
Orbit: 293 x 320 km, 42.8° (Epoch: 19 October)

Event Time Altitude Azimuth Distance (km) Brightness Sun altitude
Rises 20:20:37 0° 278° (W) 2,028 6.6 -16.2°
Reaches altitude 10° 20:22:53 10° 296° (WNW) 1,194 4.6 -16.6°
Maximum altitude 20:25:00 21° 349° (N) 769 2.7 -17.1°
Enters shadow 20:25:32 19° 7° (N) 802 2.6 -17.2°
